Home > Weather > Evansville > Past weeks

Flag for USA Past Weather in Evansville, Indiana, USA — Yesterday and Last 2 Weeks

Now
79 °F

Sunny.


Feels Like: 83 °F
Forecast: 74 / 91 °F
Wind: 8 mph from Southwest

Location: Evansville Regional Airport

Current Time: Aug 25, 2016 at 8:27:27 AM

Latest Report: Aug 25, 2016 at 7:54 AM


Visibility: 10 mi

Pressure: 30.09 "Hg

Humidity: 84%

Dew Point: 74 °F

Location of EvansvilleLocation

Past Weather in Evansville — Graph

°F

Evansville Temperature Yesterday

Maximum temperature yesterday: 90 °F (at 1:54 PM)
Minimum temperature yesterday: 71 °F (at 4:54 AM)
Average temperature yesterday: 81 °F

High & Low Weather Summary for the Past Weeks

 TemperatureHumidityPressure
High90 °F (Aug 24, 1:54 PM)97% (Aug 13, 11:54 PM)30.26 "Hg (Aug 13, 11:54 PM)
Low59 °F (Aug 22, 5:54 AM)45% (Aug 22, 12:54 PM)29.70 "Hg (Aug 20, 3:54 PM)
Average77 °F81%30.02 "Hg
* Reported Aug 10 6:54 AM — Aug 25 6:54 AM, Evansville, Weather by CustomWeather, © 2016

Note: Actual official high and low records may vary slightly from our data, if they occured in-between our weather recording intervals... More about our weather records

Advertising

Evansville Weather History for the Previous 24 Hours

Scroll right to see more
 ConditionsComfort  
Time TempWeatherWind HumidityBarometerVisibility
6:54 AM
Thu, Aug 25
76 °FSunny.3 mph91%30.07 "Hg10 mi
5:54 AM76 °FClear.7 mph91%30.07 "Hg10 mi
4:54 AM75 °FClear.5 mph94%30.07 "Hg10 mi
3:54 AM75 °FClear.5 mph94%30.06 "Hg10 mi
2:54 AM76 °FClear.5 mph91%30.06 "Hg10 mi
1:54 AM77 °FClear.6 mph90%30.06 "Hg10 mi
12:54 AM78 °FClear.6 mph87%30.06 "Hg10 mi
11:54 PM
Wed, Aug 24
79 °FClear.9 mph88%30.04 "Hg10 mi
10:54 PM80 °FClear.5 mph81%30.05 "Hg10 mi
9:54 PM82 °FClear.6 mph79%30.05 "Hg10 mi
8:54 PM81 °FClear.6 mph79%30.06 "Hg10 mi
7:54 PM84 °FClear.6 mph67%30.04 "Hg10 mi
6:54 PM86 °FSunny.10 mph63%30.03 "Hg10 mi
5:54 PM88 °FSunny.16 mph59%30.03 "Hg10 mi
4:54 PM89 °FBroken clouds.15 mph57%30.03 "Hg10 mi
3:54 PM90 °FScattered clouds.16 mph59%30.04 "Hg10 mi
2:54 PM88 °FPassing clouds.17 mph61%30.06 "Hg10 mi
1:54 PM90 °FBroken clouds.17 mph61%30.07 "Hg10 mi
12:54 PM87 °FScattered clouds.12 mph67%30.08 "Hg10 mi
11:54 AM87 °FScattered clouds.15 mph67%30.11 "Hg10 mi
10:54 AM85 °FSunny.13 mph70%30.13 "Hg10 mi
9:54 AM81 °FSunny.10 mph77%30.13 "Hg10 mi
8:54 AM78 °FSunny.12 mph82%30.13 "Hg10 mi
Weather by CustomWeather, © 2016

See weather overviewHow to use our weather pages